星链-35834(STARLINK-35834)

导读

STARLINK-35834是美国太空探索技术公司(SpaceX)星链互联网星座的成员,于2025年11月21日发射升空。星链项目旨在构建全球卫星互联网,该卫星承担为偏远地区、海洋等场景提供高速低延迟互联网接入服务的任务,进一步拓展了星链星座的全球覆盖与服务能力,助力SpaceX完成星座组网部署。

基本信息
目录编号:
66570
目录名称:
STARLINK-35834
国际标识:
2025-268P
轨道中心:
EARTH
卫星名称:
星链-35834
卫星全名:
星链-35834(STARLINK-35834)
卫星状态:
在轨 (已飞行204 天)
发射日期:
2025-11-21 UTC
国别 :
美国 (US)
星等 :
--
轨道信息
数据来源 国际轨道数据
星历时间: 2026-06-12T15:08:03+0800
1天前
查看轨道信息
半长轴: 6861.152km
偏心率: 0.0002109
轨道倾角: 43.008°
近地点辐角 280.330°
升交点赤经 173.218°
平近点角 79.732°
近地点: 481.567km
远地点: 484.463km
周期: 94.266分钟
每日圈数: 15.275917
详细信息
固有亮度:
5
最大亮度:
2.5
卫星平台:
Starlink V1.0
覆盖范围:
全球
运营商:
太空探索技术公司
运营商所在国:
美国
制造商(研发单位):
太空探索技术公司
制造商所在国:
美国
使用方式:
暂无
卫星简介
Starlink 计划是 SpaceX 推出的全球卫星互联网项目,通过发射低轨道卫星,为全球尤其是偏远地区提供高速、低延迟的互联网服务。自 2019 年起,Starlink 已部署数千颗卫星,旨在缩小全球数字鸿沟,推动互联网普及。该项目还为军事、航空等行业提供通信支持,带来广泛经济效益。
2D轨道图
3D轨道图
轨道高度分析图
轨道倾角分析图
轨道综合分析图
查看轨道综合分析图